COSMOS 252 DEB *, 18597

Orbit data source: Space-Track

COSMOS 252 DEB *, 18597 is space debris in LEO originally from a launch on Fri, 01 Nov 1968 UTC launched from the Tyuratam Missile And Space Complex (TTMTR). Debris objects in space refer to the collection of defunct objects orbiting the Earth. Examples of debris include non-operational satellites, rocket bodies, and fragments generated from explosions, collisions, or faulty payload assembly.

Loading next visibility...
Identifier
18597, 1968-097EQ
Orbit
LEO
Country
Flag of CISCIS
Related business
Manufacturer
Unknown
Mission
Spacecraft
Bus & Motor
Unknown
Mass
Unknown
Launch date (UTC)
1968-11-01 (58 years ago)
Launch vehicle
Unknown
Launch site
Tyuratam Missile And Space Complex (TTMTR)
Object type
Payload
Rocket body
Debris
Shape & HBR
Unknown shape, 0.1 m
Radar Cross Section
Medium (>0.1 m² and <1 m²)

Expand to show TLE details & history
Last TLE update: 1 day ago

TLE from 1 day ago
0 COSMOS 252 DEB *
1 18597U 68097EQ  26174.65587947 -.00000219  00000-0 -17986-3 0  9999
2 18597  62.2515 272.4397 0777514  52.0126 314.8518 12.75709699584938
Epoch: 2026-06-23T15:44Z
TLE epoch observation values (Epoch: 2026-06-23T15:44:27.986Z)
Latitude
0.00003°
Longitude
124.49879°
Altitude
961.607 km
Speed
7.559 km/s
True Right ascension
18h 09m 45s
True Declination
0° 00' 00"
Sunlit
Object was in full shadow at epoch
Visualization orbit readout
Latitude
Unknown
Longitude
Unknown
Altitude
Unknown
Speed
Unknown
Apparent Right ascension
Unknown
Apparent Declination
Unknown
Sunlit
N/A
Visualization observer readout
Local Sidereal Time
03:14:56
Azimuth
Unknown
Elevation
Unknown
Doppler factor
Unknown
Orbital elements
Apogee altitude
1,959.246 km
Perigee altitude
756.291 km
Semi-major axis
7,735.906 km
Eccentricity
0.07775
Inclination
62.2515°
RAAN
272.4397°
Arg. of periapsis
52.0126°
True anomaly
308.088°
Mean anomaly
314.8518°
Eccentric anomaly
311.51616°
Mean motion
3.1899 °/min
Orbital period
112.86 mins
BSTAR
-0.00017986
Loading maneuver chart data...
Computing Atmospheric mass density...

Documentation

Showing up to 5 results
|